Volver al catálogo

COSMOS 1818 COOLANT

LostLEO
NORAD 50778·DEBRIS·🇷🇺 Russia

Lanzado Feb 1, 1987 desde Baikonur Cosmodrome

Loading…

Próximos Pases (próximas 24 horas)

TLE

ObsoletoSource: Space-Track

Época: Mar 15, 2023, 05:10 UTC

1 50778U 87011AT  23074.21573942  .00001431  00000-0  53304-3 0  9990
2 50778  65.0123 292.2563 0013065 289.7519  70.2158 14.35294583650144

Sigue COSMOS 1818 COOLANT en tiempo real con AllMySat

Download on the App Store